STARLINK-3712, 52090

Orbit data source: Space-Track

STARLINK-3712, 52090 is a payload satellite owned by SpaceX/Seattle (US) in LEO that was launched on Sat, 19 Mar 2022 UTC via an FALCON 9 launch vehicle from the Air Force Eastern Test Range (AFETR). Payload-class satellites include a variety of spacecraft equipped with specific instruments for various scientific and technological missions. These include communications satellites like Starlink; space stations such as the ISS; scientific satellites like the Hubble; Earth observation satellites from companies like Planet Labs, Umbra, and HawkEye 360; GPS; miniature CubeSats for education and research; and military/defense satellites.

Loading next visibility...
Identifier
52090, 2022-029C
Orbit
LEO
Country
Flag of USUS
Related business
Manufacturer
SpaceX/Seattle
Mission
Operational Commercial Communications
Bus & Motor
STARLINK, Unknown motor
Mass
297 kg wet, ~275 kg dry
Launch date (UTC)
2022-03-19 (4 years ago)
Launch vehicle
FALCON 9
Launch site
Air Force Eastern Test Range (AFETR)
Object type
Payload
Rocket body
Debris
Shape & HBR
Box + 1 Pan, 10.1 m
Radar Cross Section
13.562 m², Large (>1 m²)

Expand to show TLE details & history
Last TLE update: 2 days ago

TLE from 2 days ago
0 STARLINK-3712
1 52090U 22029C   26171.22026684  .00001759  00000-0  12855-3 0  9994
2 52090  53.1600 348.7275 0001222 100.6583 259.4546 15.08846689236134
Epoch: 2026-06-20T05:17Z
TLE epoch observation values (Epoch: 2026-06-20T05:17:11.054Z)
Latitude
-0.00005°
Longitude
0.99339°
Altitude
540.769 km
Speed
7.593 km/s
True Right ascension
23h 14m 54s
True Declination
0° 00' 00"
Sunlit
Object was in daylight at epoch
Visualization orbit readout
Latitude
Unknown
Longitude
Unknown
Altitude
Unknown
Speed
Unknown
Apparent Right ascension
Unknown
Apparent Declination
Unknown
Sunlit
N/A
Visualization observer readout
Local Sidereal Time
21:25:43
Azimuth
Unknown
Elevation
Unknown
Doppler factor
Unknown
Orbital elements
Apogee altitude
540.822 km
Perigee altitude
539.132 km
Semi-major axis
6,918.114 km
Eccentricity
0.00012
Inclination
53.16°
RAAN
348.7275°
Arg. of periapsis
100.6583°
True anomaly
259.44083°
Mean anomaly
259.4546°
Eccentric anomaly
259.44772°
Mean motion
3.77191 °/min
Orbital period
95.44 mins
BSTAR
0.00012855
Loading maneuver chart data...
Computing Atmospheric mass density...
Loading historical data...
Loading historical data...
Loading historical data...
Loading historical data...
Loading historical data...
Loading historical data...
Loading historical data...

Documentation

Showing up to 5 results
|